Tracking 22882 objects as of 19-Apr-2021
HD Live streaming from Space Station
objects crossing your sky now

STARLINK-1715

Track STARLINK-1715 now!
10-day predictions
STARLINK-1715 is classified as:


NORAD ID: 46671
Int'l Code: 2020-073B
Perigee: 553.1 km
Apogee: 555.6 km
Inclination: 53.1 °
Period: 95.6 minutes
Semi major axis: 6925 km
RCS: Unknown
Launch date: October 18, 2020
Source: United States (US)
Launch site: AIR FORCE EASTERN TEST RANGE (AFETR)
aabbcc
Your satellite tracking list
Your tracking list is empty




NASA's NSSDC Master Catalog

Two Line Element Set (TLE):
1 46671U 20073B   21108.79084893  .00000008  00000-0  19471-4 0  9990
2 46671  53.0568 343.8243 0001812  91.1203 268.9994 15.06401470 28362
Source of the keplerian elements: AFSPC